Vorticity
nan nan nan nan nan nan nan nan nan nan nan nan nan nan nan nan nan nan nan nan nan nan nan nan nan nan nan nan nan nan nan nan nan nan nan nan nan nan nan nan nan nan nan nan nan nan nan nan nan nan nan nan nan nan nan nan nan nan nan nan nan nan nan nan nan nan nan nan nan nan nan nan nan nan nan nan nan nan nan nan nan nan nan nan nan nan nan nan nan nan nan nan nan nan nan nan nan nan nan nan nan nan nan
nan 5 3 2 2 2 4 6 6 6 6 9 9 7 7 7 7 7 7 7 7 6 6 5 5 4 4 4 4 4 5 5 7 7 7 6 5 5 6 6 6 5 4 3 2 0 -1 -0 4 5 5 6 6 6 5 5 6 7 8 6 6 9 18 18 9 5 6 5 5 5 3 3 2 2 3 4 5 5 5 6 7 7 8 7 6 4 4 5 6 6 6 6 6 6 6 6 5 5 5 5 5 4 nan
nan 4 3 2 2 2 4 6 6 7 8 9 8 8 8 7 7 7 7 7 6 6 5 5 5 4 4 4 4 4 5 6 8 9 8 7 6 6 6 6 5 5 4 3 2 0 -2 1 3 5 5 5 6 6 6 6 6 7 6 6 6 11 18 15 8 5 5 5 5 5 4 2 1 1 1 3 4 4 4 5 6 6 7 6 6 5 5 6 6 7 6 6 6 6 6 5 5 5 5 6 6 6 nan
nan 5 4 3 2 3 5 7 8 9 10 10 9 9 9 8 7 7 7 6 6 6 5 5 5 5 5 4 4 4 5 6 7 8 8 8 7 7 6 6 5 4 3 2 2 -1 -3 1 4 5 5 5 6 6 6 6 6 6 6 6 7 12 17 13 7 5 5 5 5 6 6 5 3 1 1 2 3 3 4 4 5 6 6 6 6 5 5 5 5 5 5 4 4 4 4 4 4 4 4 5 6 6 nan
nan 5 4 3 3 5 6 9 11 13 13 11 11 11 9 7 7 6 6 6 6 6 5 5 5 6 5 4 4 4 4 5 6 6 7 8 8 7 6 5 4 4 3 2 1 0 1 3 3 4 5 5 5 5 6 6 6 6 5 6 9 15 17 10 6 5 5 5 5 6 7 7 5 4 3 3 3 4 4 4 5 5 5 5 5 4 4 5 4 4 3 3 2 2 2 2 3 3 3 4 5 5 nan
nan 4 4 3 5 7 9 12 13 14 14 13 13 12 8 6 6 6 6 6 5 5 5 6 6 6 6 4 4 4 3 4 4 5 7 8 8 8 6 5 4 3 3 2 2 2 3 2 4 6 6 6 6 6 5 6 6 6 5 7 11 16 15 9 6 6 5 5 5 6 7 8 7 6 6 6 5 5 4 5 4 4 4 4 4 4 5 5 4 4 3 3 2 2 2 2 3 3 4 4 4 4 nan
nan 3 3 3 6 10 12 14 14 15 15 14 12 11 7 5 5 5 5 5 5 5 5 6 6 7 6 5 4 4 3 4 5 6 7 8 8 8 6 5 4 3 3 3 2 2 2 3 6 7 7 6 6 6 6 6 6 5 5 8 16 17 14 9 6 6 4 4 4 5 6 7 8 8 7 6 6 5 5 5 5 5 5 5 6 5 5 6 5 5 4 3 3 3 3 3 4 5 5 5 5 5 nan
nan 3 3 4 8 11 13 13 13 13 13 12 10 8 6 5 5 5 5 5 5 5 6 6 6 7 6 5 4 4 3 3 4 5 7 8 8 8 7 5 4 3 3 3 3 2 2 3 6 6 6 6 6 6 6 6 6 5 4 9 16 17 14 9 6 6 5 4 4 4 6 6 6 6 6 6 5 5 5 5 5 5 5 6 6 6 7 7 7 6 6 5 4 4 4 4 5 6 6 6 6 6 nan
nan 2 3 6 9 11 11 11 10 10 10 8 7 6 6 5 5 5 5 5 5 5 6 6 6 7 6 6 5 4 3 3 4 5 6 7 8 8 7 5 4 3 4 3 3 2 1 2 5 6 6 7 7 7 5 5 5 5 5 8 16 19 15 8 6 7 5 4 4 4 6 5 5 5 5 5 5 5 5 5 5 5 5 5 6 6 6 7 7 7 6 6 5 4 4 5 6 7 7 6 6 6 nan
nan 2 4 7 10 10 9 7 6 7 8 5 5 5 5 6 5 5 6 6 6 6 6 6 6 6 6 6 5 4 3 3 4 5 6 7 8 8 7 6 5 4 4 3 3 2 1 2 5 6 7 7 7 6 5 4 5 5 5 9 17 18 13 8 7 8 7 7 7 6 6 5 4 4 4 5 5 5 5 4 4 4 4 4 5 5 5 5 5 6 6 5 5 5 4 4 5 6 7 6 6 6 nan
nan 3 5 8 8 7 6 4 4 7 9 6 6 6 6 6 6 6 6 6 6 6 6 6 6 6 7 6 5 4 3 3 4 4 6 7 8 8 8 6 5 4 4 3 3 2 0 2 5 6 7 8 7 6 4 5 6 5 7 12 16 14 10 8 10 17 19 13 10 7 4 5 4 4 4 4 4 5 5 4 3 2 2 2 3 4 4 4 5 5 5 5 4 4 4 5 5 5 5 5 5 5 nan
nan 5 6 8 8 6 3 3 5 8 9 7 6 6 6 6 6 6 6 7 7 7 6 6 6 6 7 6 5 4 3 3 4 4 5 6 7 8 8 7 6 5 4 4 2 -0 -3 1 5 6 7 7 6 5 5 6 6 5 9 15 15 12 9 8 13 25 31 21 13 7 4 5 4 3 3 4 4 3 3 3 3 2 2 3 3 4 5 5 5 5 5 4 4 4 5 5 5 4 4 4 4 5 nan
nan 5 4 7 9 7 4 5 7 9 8 6 7 6 6 6 6 6 7 7 7 7 7 6 6 6 7 6 6 5 4 4 4 4 5 6 7 8 9 9 8 7 6 3 -1 -5 -4 3 6 6 6 6 6 6 6 6 6 5 10 16 13 11 7 7 13 24 29 21 13 7 4 4 3 3 3 3 3 3 3 3 4 3 4 5 5 5 5 6 6 6 5 5 5 5 6 7 6 5 4 4 4 5 nan
nan 4 3 7 10 10 7 6 8 9 7 6 6 6 6 6 6 7 7 7 7 7 6 6 6 6 6 6 6 5 5 5 4 4 4 5 6 7 9 11 11 10 6 -1 -5 -4 2 6 6 6 5 6 6 6 6 5 6 7 10 15 12 9 6 6 10 16 17 14 9 6 4 4 4 3 3 3 3 3 3 3 4 5 6 6 6 6 7 7 6 6 5 5 5 6 7 8 7 7 5 4 4 4 nan
nan 5 4 6 8 13 12 7 8 8 6 6 6 6 6 6 7 7 7 7 7 6 6 6 5 5 6 6 6 5 5 5 5 4 4 5 6 7 10 13 13 11 3 -4 -1 3 7 7 6 5 5 5 6 7 6 6 6 8 11 14 11 8 5 5 7 9 9 8 6 5 4 4 3 3 3 3 4 4 4 4 5 6 7 7 7 6 6 6 6 5 5 5 5 5 6 7 7 7 5 5 5 5 nan
nan 8 6 4 5 11 13 9 8 7 6 6 6 6 5 6 7 8 8 7 7 6 6 5 5 5 6 6 6 3 1 3 3 3 4 5 6 8 10 12 11 8 1 0 5 7 7 6 5 5 5 5 5 6 6 6 6 8 12 14 10 7 5 5 5 6 6 5 4 4 3 2 3 3 4 4 5 5 5 5 5 6 7 7 6 5 5 5 5 5 5 5 4 4 5 5 5 5 5 5 6 5 nan
nan 11 9 5 3 7 10 8 8 7 5 6 6 5 5 6 6 7 8 8 7 6 6 5 4 5 6 5 3 -1 -2 1 1 2 3 5 7 8 9 8 6 4 3 6 7 8 7 5 5 5 5 5 5 5 6 7 7 8 13 13 9 6 4 4 5 5 5 4 4 5 4 3 3 4 5 5 5 5 4 4 5 5 6 6 5 4 4 4 5 5 5 5 4 4 3 3 3 3 4 5 5 5 nan
nan 13 12 8 6 7 8 6 5 5 5 7 6 6 6 6 6 7 8 8 8 7 5 4 4 5 5 3 -1 -3 -0 3 3 3 3 4 4 5 5 3 2 4 7 8 8 8 6 5 5 5 6 5 5 5 6 6 8 10 13 12 9 6 4 4 4 4 5 4 5 5 5 4 5 5 5 5 5 4 4 4 5 5 5 5 4 4 4 4 5 5 5 4 4 3 3 3 3 3 3 4 4 4 nan
nan 12 13 13 13 13 9 4 2 2 4 8 7 6 6 6 6 6 7 8 8 7 5 4 4 5 3 -1 -3 -1 4 6 6 5 3 1 1 1 1 1 3 7 10 10 10 8 6 5 5 5 6 5 5 5 6 7 9 9 11 12 8 6 4 4 4 4 4 4 5 5 5 5 5 5 5 5 4 4 4 4 5 5 4 4 4 3 3 4 4 5 5 4 4 3 3 3 3 3 3 3 4 4 nan
nan 10 12 14 16 16 11 4 1 0 5 9 6 4 4 4 4 5 7 7 7 6 5 3 1 1 -1 -4 -1 3 7 7 7 6 6 3 1 1 1 3 6 9 11 11 10 7 5 5 5 6 6 6 6 5 6 8 10 9 11 11 8 6 5 4 4 4 4 5 5 5 5 5 5 5 5 5 4 4 4 5 5 5 4 4 4 4 4 4 4 4 4 4 4 3 3 3 3 3 4 3 4 4 nan
nan 6 8 11 13 12 8 5 2 1 7 8 2 1 1 2 3 4 4 3 5 5 4 -1 -3 -2 -2 0 4 6 6 6 6 7 7 5 4 4 5 6 7 9 10 10 9 7 6 6 6 6 6 6 6 6 7 7 9 9 10 10 8 7 5 5 5 5 5 5 5 5 5 6 5 5 5 4 4 4 5 5 5 5 5 5 4 4 4 4 4 4 4 4 4 4 3 3 3 4 4 4 5 5 nan
nan 6 6 8 8 6 6 7 5 6 11 7 -1 -0 2 3 4 3 1 1 4 4 1 -2 -2 1 2 4 5 5 4 5 6 7 6 5 5 5 6 6 7 7 8 8 9 8 8 7 7 7 6 6 6 6 8 8 7 8 9 8 8 7 6 5 5 6 6 6 5 5 5 5 6 5 5 5 4 4 4 5 5 5 5 5 5 5 5 4 4 4 4 4 4 4 4 4 4 4 4 5 6 6 nan
nan 8 6 5 5 5 8 9 8 9 11 6 0 1 4 6 6 4 2 3 5 4 2 1 2 4 5 5 5 4 4 6 6 6 6 6 5 6 6 7 7 7 6 7 8 8 8 8 8 8 7 6 6 7 9 10 8 7 7 8 9 9 7 5 5 6 6 6 6 5 5 5 6 6 5 5 5 4 4 4 5 5 5 5 5 5 5 5 5 4 4 4 4 3 3 4 4 4 4 6 6 6 nan
nan 8 6 5 6 6 9 9 8 9 9 6 4 5 6 8 8 6 4 5 6 6 4 3 4 5 6 6 6 5 6 7 7 7 6 6 6 6 6 7 7 6 7 7 7 7 7 8 9 9 8 7 7 8 10 12 9 7 6 8 9 9 8 7 6 6 6 6 6 6 5 5 5 6 6 5 5 4 4 4 4 5 5 5 5 4 4 5 5 5 5 5 4 4 3 4 4 4 4 5 6 6 nan
nan 8 7 7 7 8 9 7 6 6 6 7 7 8 9 9 8 6 5 6 7 7 5 4 5 7 8 7 6 6 7 6 6 7 7 7 7 6 6 6 6 6 7 7 6 6 7 7 8 8 8 8 8 9 11 12 10 8 6 7 9 9 9 8 6 6 6 6 6 6 5 5 5 5 5 5 5 4 4 4 4 4 5 5 5 4 4 4 5 5 6 6 5 5 4 4 4 4 4 4 5 6 nan
nan 8 7 7 8 11 11 6 4 3 5 6 7 8 9 9 8 7 6 7 7 8 8 7 7 8 9 8 7 6 6 5 6 7 7 7 7 6 6 6 6 7 7 7 6 7 7 7 7 7 7 7 8 9 11 11 11 9 6 7 8 9 10 8 6 6 6 6 6 6 5 5 5 5 5 5 5 5 5 5 5 5 5 5 5 5 5 4 4 5 5 6 6 6 5 4 4 4 4 4 4 5 nan
nan 7 7 6 8 11 13 11 6 3 5 6 6 6 7 8 9 8 7 7 7 8 10 9 7 6 7 8 7 5 5 5 6 7 7 6 7 7 7 7 7 8 7 6 7 8 8 8 7 7 6 7 7 8 12 14 11 10 7 7 7 9 10 8 6 6 6 6 6 5 6 6 5 5 5 5 5 5 5 6 5 5 5 4 4 5 5 5 4 4 5 6 6 6 6 5 5 5 5 4 3 4 nan
nan 8 7 5 6 8 11 13 10 6 5 7 7 6 5 7 9 8 8 7 7 8 9 9 7 5 6 7 7 6 5 6 6 6 6 7 7 7 7 7 7 7 6 6 7 8 9 9 9 7 6 6 7 7 11 15 14 12 9 7 7 8 9 8 7 6 6 6 6 6 6 6 6 6 6 5 5 5 6 6 6 6 5 3 4 5 7 7 6 5 4 5 6 6 7 6 6 6 6 5 4 3 nan
nan 7 6 4 4 6 9 11 12 9 6 7 7 7 5 6 8 7 8 8 7 7 7 9 7 7 7 7 8 8 7 7 7 6 5 6 7 8 7 6 6 6 6 6 7 8 9 9 9 8 7 6 6 7 9 15 17 15 10 7 7 7 8 8 8 7 7 7 7 6 6 6 6 7 7 7 6 6 6 8 8 7 4 3 4 5 6 8 7 6 6 6 6 6 6 6 6 6 6 5 4 3 nan
nan 8 7 4 3 3 6 9 12 11 8 7 7 7 6 5 6 6 7 8 7 7 8 8 8 9 8 8 9 8 8 8 7 6 5 6 7 8 8 7 7 6 6 7 7 7 8 9 8 7 8 8 7 7 8 13 18 17 12 8 7 7 7 8 9 10 9 8 7 6 6 5 5 7 8 8 8 7 9 11 10 8 4 3 4 4 5 7 6 6 8 7 6 6 5 6 6 6 5 6 5 4 nan
nan 9 10 8 5 3 3 6 10 13 10 8 8 9 9 6 5 5 7 8 8 8 8 7 6 7 7 7 8 8 9 8 7 7 6 6 8 9 9 9 8 8 8 8 8 8 8 9 7 6 8 9 8 7 7 11 16 19 15 9 7 6 6 7 8 11 11 9 8 8 7 5 4 4 6 7 8 8 9 11 10 8 6 6 6 6 5 5 5 5 6 7 7 7 4 3 3 4 6 8 7 6 nan
nan 6 9 11 11 9 5 5 7 11 13 12 12 11 12 10 6 5 6 8 8 8 8 7 6 6 6 6 7 8 9 8 7 7 7 7 8 9 10 10 9 8 9 10 10 10 10 9 8 8 8 8 7 7 8 9 13 18 19 13 9 7 6 6 7 11 11 9 9 9 9 8 7 5 5 5 5 5 8 9 10 9 7 6 6 7 6 5 4 5 6 7 7 7 4 2 2 3 6 9 9 8 nan
nan 0 0 8 10 12 9 7 7 8 11 13 13 14 15 15 9 6 7 8 9 10 10 10 9 7 6 6 7 7 8 8 7 7 7 7 8 8 9 8 8 8 8 9 10 10 11 12 11 10 9 8 6 6 7 9 10 13 18 18 14 10 7 6 6 8 9 9 11 13 14 13 12 10 8 6 5 5 7 8 8 8 6 6 7 8 7 5 5 5 5 6 7 7 5 3 2 2 4 7 10 11 nan
nan 2 -5 -0 5 10 11 9 8 7 8 10 11 12 16 17 11 9 8 9 9 8 9 10 9 8 7 7 7 7 7 8 8 7 7 7 7 8 7 6 5 5 6 6 8 9 11 13 13 12 11 9 8 7 7 8 9 10 13 17 17 15 10 7 6 6 7 7 10 12 14 15 16 16 16 14 11 9 8 8 9 8 7 8 8 8 8 8 8 6 6 8 9 8 7 5 3 1 2 6 9 12 nan
nan 13 5 1 4 7 10 9 7 6 7 8 9 10 13 13 10 8 5 7 6 3 3 6 7 8 8 7 7 6 7 8 7 6 6 6 7 7 6 3 2 3 4 5 6 8 10 12 13 14 13 12 10 8 8 9 9 10 13 15 16 16 13 8 6 5 6 6 6 7 9 13 16 18 19 20 20 19 17 15 14 12 10 11 11 10 10 11 10 9 9 10 10 9 8 7 7 5 3 4 7 10 nan
nan 17 13 8 8 8 8 8 7 7 7 8 9 9 11 13 10 5 2 3 5 4 2 3 5 8 8 6 6 6 6 7 7 6 6 7 7 7 5 4 2 2 3 4 5 6 8 9 10 12 14 14 13 11 9 8 9 10 12 12 13 14 14 11 9 7 7 8 7 5 6 9 12 15 17 19 22 24 23 23 21 19 18 17 16 15 14 14 12 10 10 11 12 11 10 9 7 6 4 4 4 6 nan
nan 12 11 10 9 9 8 8 8 8 8 8 9 8 10 15 16 11 6 3 5 4 4 3 4 7 8 7 6 6 6 7 8 8 7 7 7 6 4 4 3 3 3 4 4 4 5 6 7 8 10 12 12 12 10 6 5 7 10 9 10 11 13 12 11 9 9 10 10 10 10 11 11 12 13 16 20 23 24 24 24 22 21 20 20 19 18 18 15 13 13 13 14 13 11 9 7 6 5 5 4 4 nan
nan 11 9 8 8 9 9 9 9 9 8 8 8 8 9 12 16 19 16 8 6 4 5 5 4 5 8 9 8 7 6 7 9 11 10 7 6 4 3 4 4 4 4 4 3 3 3 3 3 4 6 8 8 8 9 5 0 1 7 9 9 10 12 13 12 10 5 6 9 12 15 13 12 11 12 15 16 18 19 19 19 18 17 18 19 19 20 20 18 16 15 15 14 14 13 11 9 8 8 8 7 6 nan
nan 12 10 7 6 7 8 9 9 9 8 7 7 8 8 9 12 19 18 13 9 7 6 6 5 4 7 9 9 8 6 4 5 9 11 9 9 5 4 7 7 7 5 4 4 4 3 2 -0 -1 1 4 4 3 6 5 -3 -5 2 9 9 9 10 11 10 8 4 2 3 7 13 14 12 11 12 14 15 16 15 15 15 14 14 13 14 14 16 17 17 16 16 16 15 15 14 14 13 13 13 13 12 11 nan
nan 12 10 8 6 6 7 9 9 8 7 7 8 8 8 8 11 15 16 14 11 9 8 6 5 5 6 7 8 9 10 6 2 2 8 12 13 10 10 12 12 10 8 6 6 7 7 3 -1 -3 -1 3 4 2 4 5 1 -2 1 10 12 10 7 9 9 10 9 6 2 1 6 12 13 13 14 14 15 14 14 14 13 13 13 12 11 11 12 13 13 13 14 14 14 14 14 14 14 15 15 15 16 18 nan
nan 11 10 8 6 5 6 7 8 8 7 7 8 8 8 9 10 13 15 15 12 12 10 5 4 6 8 7 6 10 15 11 4 0 4 11 12 11 13 16 16 13 12 10 9 11 12 9 5 2 2 6 7 6 6 8 8 7 6 11 14 13 10 11 11 12 12 9 6 3 1 7 11 13 13 13 13 13 13 12 13 13 14 14 13 12 11 11 11 11 12 12 12 12 12 11 11 12 13 13 15 19 nan
nan 10 9 8 7 5 5 6 8 9 8 8 8 8 9 9 10 12 14 14 13 13 12 7 2 5 9 8 7 9 13 12 7 3 4 8 8 7 11 16 16 15 15 16 14 15 17 15 12 8 9 13 13 8 6 9 11 10 9 10 13 14 15 14 14 13 12 10 7 4 -1 -2 3 7 8 8 9 10 11 11 12 13 14 15 15 14 14 13 12 12 12 12 11 12 12 11 11 10 10 11 12 14 nan
nan 9 8 7 7 6 7 8 9 10 9 8 8 8 8 8 9 11 13 13 12 12 13 11 5 4 9 11 10 9 10 11 9 7 6 7 6 6 8 12 12 12 13 16 18 19 20 19 16 15 16 18 16 10 7 9 9 9 8 8 9 12 15 16 15 15 13 12 9 6 1 -7 -8 -4 -0 1 2 4 7 10 11 11 12 13 13 14 15 16 15 15 13 13 13 14 14 14 13 13 12 12 12 13 nan
nan 9 8 7 7 7 9 12 12 11 10 9 8 8 8 7 8 9 11 11 11 10 10 11 9 7 8 12 12 11 11 12 10 9 9 8 6 6 8 9 9 9 9 11 14 16 20 22 20 18 18 17 15 11 10 9 8 9 8 8 8 8 12 15 17 17 15 12 10 8 7 -0 -8 -13 -10 -7 -6 -5 0 6 9 10 10 10 10 11 13 16 18 18 16 15 15 16 16 16 17 18 18 17 18 18 nan
nan 8 7 7 8 8 11 14 14 12 10 9 8 8 7 7 7 7 9 10 11 11 10 9 9 9 9 12 12 12 12 12 9 8 8 8 7 8 9 8 9 9 8 8 9 11 15 18 18 15 14 13 12 11 11 10 7 6 7 9 9 7 8 13 15 17 14 10 8 9 10 8 3 -5 -9 -9 -11 -12 -9 -2 4 7 8 7 7 8 10 15 18 20 19 17 15 16 17 19 21 22 23 23 24 23 nan
nan 8 7 7 8 9 11 14 13 12 10 10 9 8 7 7 7 7 8 9 11 12 11 9 7 7 9 12 12 11 10 10 8 7 6 6 7 8 9 9 8 8 8 8 8 8 10 13 13 11 11 12 13 13 12 9 5 3 5 7 9 8 7 9 12 13 12 9 9 9 8 8 9 8 2 -1 -3 -8 -14 -10 -3 2 4 5 5 5 8 12 17 20 21 18 16 16 18 20 21 23 23 23 22 20 nan
nan 8 7 6 7 9 11 13 14 12 11 10 10 9 9 9 8 8 8 8 9 11 10 9 6 6 7 9 9 9 9 8 7 6 5 6 6 7 8 8 7 7 7 8 9 9 10 11 11 11 10 12 14 15 15 9 6 4 5 5 6 7 6 7 9 10 10 10 10 10 8 6 8 10 9 6 5 2 -6 -12 -10 -5 -1 2 3 4 5 10 15 20 22 20 17 17 18 20 20 20 18 16 13 10 nan
nan 8 6 5 7 8 9 11 13 12 11 10 9 9 10 12 12 11 10 10 9 8 10 9 8 6 5 4 5 7 9 8 7 6 6 6 6 6 7 6 5 6 6 8 8 9 11 10 10 11 11 12 13 14 13 10 8 7 6 5 4 4 5 7 8 10 10 11 11 12 12 8 7 8 10 8 8 6 3 -4 -9 -10 -8 -3 -0 1 1 6 12 18 22 21 19 18 17 17 16 14 12 9 6 4 nan
nan 8 7 6 7 9 8 9 11 12 11 10 9 8 9 12 12 12 13 13 10 8 9 10 10 8 5 2 4 6 9 9 9 8 7 5 5 5 5 4 3 3 5 6 7 7 8 10 10 11 12 12 12 12 11 10 9 8 7 6 4 2 3 5 6 8 9 11 12 12 13 12 10 8 9 8 8 8 7 5 0 -6 -11 -9 -6 -3 -3 1 7 13 18 19 19 20 18 14 11 9 8 6 4 3 nan
nan 9 8 7 7 8 8 9 11 11 9 10 9 8 8 10 11 10 10 12 12 10 8 8 8 10 7 4 5 6 8 10 9 6 6 7 8 7 5 4 3 2 4 4 4 4 5 6 8 10 13 13 12 11 10 10 10 9 8 7 6 3 1 2 3 5 6 6 8 10 12 13 12 10 9 9 9 9 8 8 6 4 -1 -7 -8 -6 -7 -8 -0 8 14 15 16 20 21 16 11 7 4 4 4 4 nan
nan 10 9 8 7 6 6 9 11 11 9 8 7 6 5 7 9 8 6 8 11 11 9 6 6 7 8 9 8 7 8 10 10 7 6 8 10 11 8 6 5 4 3 3 3 3 2 1 3 6 11 13 12 11 10 9 8 9 9 8 7 6 4 3 3 3 3 2 3 6 10 12 14 13 11 11 12 12 11 10 9 8 8 4 1 -1 -3 -8 -11 -5 6 10 12 15 19 19 15 9 6 5 5 4 nan
nan 12 11 10 8 7 5 7 9 10 10 9 6 5 3 3 6 7 7 6 9 11 11 9 7 7 7 8 8 7 8 10 11 12 10 8 7 8 9 9 8 6 6 7 5 2 1 -0 0 0 4 10 13 13 12 10 8 8 9 10 9 8 7 7 6 5 3 2 2 2 5 7 10 12 12 12 13 14 14 13 11 10 9 7 6 4 1 -2 -5 -8 -2 4 8 11 15 17 16 13 9 7 6 6 nan
nan 12 14 12 10 9 7 6 7 10 12 11 9 8 6 5 7 8 8 8 8 9 11 12 11 9 8 7 7 6 6 9 11 14 12 8 5 4 8 11 10 8 8 9 6 3 2 3 3 0 -0 4 8 11 14 13 9 7 8 9 8 8 8 8 8 7 5 4 3 3 3 4 5 7 8 8 9 11 12 13 14 13 10 8 6 6 2 -2 -2 -0 -1 -0 2 5 9 12 12 11 9 8 7 7 nan
nan 9 14 15 12 11 9 8 7 9 12 12 10 8 7 7 8 8 9 9 9 9 9 11 11 10 9 8 8 6 5 7 10 12 13 10 8 6 7 9 10 10 9 8 7 5 5 6 5 3 1 1 3 5 8 12 11 9 8 9 9 8 8 8 8 7 7 5 5 4 5 5 5 6 7 6 5 6 7 9 12 14 13 9 8 7 5 2 0 2 0 -2 1 5 4 7 10 9 9 8 7 7 nan
nan 9 12 14 14 13 10 8 8 8 10 12 11 9 7 7 8 8 8 9 10 11 9 10 10 11 10 8 8 7 5 5 8 10 12 12 12 11 8 6 6 8 9 9 9 7 7 7 4 1 -0 2 3 1 1 6 10 11 10 10 12 12 10 8 8 8 7 7 6 5 5 5 4 5 7 7 6 7 7 7 9 11 12 10 8 7 5 5 7 6 2 -2 0 6 6 5 8 8 8 8 7 7 nan
nan 9 10 10 13 15 14 10 9 8 9 11 10 9 8 7 7 7 8 8 9 11 12 11 10 11 12 10 9 8 7 6 7 9 10 10 12 14 13 10 6 4 6 8 9 9 8 8 4 2 -0 3 7 7 2 2 6 10 10 9 11 13 13 11 9 8 7 7 7 6 5 4 2 2 3 5 6 7 8 9 8 8 9 10 8 6 4 6 9 8 6 4 0 -0 5 5 7 8 7 7 8 7 nan
nan 6 8 9 11 14 16 12 8 8 8 9 10 9 8 7 7 7 7 8 9 10 12 11 9 9 12 13 11 9 9 7 6 6 8 9 10 12 14 12 10 8 8 9 10 10 10 9 7 7 5 2 3 7 7 4 4 7 8 7 9 11 13 14 13 10 9 8 8 8 7 6 5 4 3 4 4 4 6 9 9 9 8 8 8 7 4 5 9 11 10 10 6 0 2 6 7 7 7 7 7 8 nan
nan 7 6 8 9 12 16 14 10 8 8 8 10 10 8 8 8 8 8 8 9 9 12 13 10 8 9 12 11 10 10 9 6 4 5 7 7 9 11 12 11 11 12 13 12 11 10 8 10 10 9 3 -0 0 3 3 3 4 5 6 8 9 10 13 14 12 10 10 10 9 8 7 7 7 5 5 5 2 3 7 9 10 10 8 8 7 5 5 8 12 13 13 14 11 7 6 7 7 7 7 7 8 nan
nan 9 7 7 8 10 13 14 12 10 8 8 10 10 9 9 9 9 8 7 8 10 13 13 12 10 9 9 10 11 11 8 5 5 5 6 5 6 9 11 11 11 12 13 13 13 11 8 7 8 8 6 3 0 -0 2 3 4 4 5 8 10 8 8 10 11 10 10 11 11 10 8 8 8 7 5 5 4 1 5 8 10 11 10 8 5 4 4 5 6 8 10 15 19 14 8 7 7 7 7 7 8 nan
nan 10 7 5 7 9 11 11 11 11 9 9 10 10 9 8 9 9 9 7 7 10 13 13 11 10 10 10 10 11 10 8 7 7 8 7 5 5 8 9 9 9 10 11 12 13 13 11 10 10 9 9 7 5 2 3 4 5 4 4 7 9 8 6 6 8 8 8 9 10 10 10 9 9 9 8 8 6 3 3 7 10 11 11 9 7 5 5 4 2 2 3 6 16 16 10 9 8 7 7 7 8 nan
nan nan nan nan nan nan nan nan nan nan nan nan nan nan nan nan nan nan nan nan nan nan nan nan nan nan nan nan nan nan nan nan nan nan nan nan nan nan nan nan nan nan nan nan nan nan nan nan nan nan nan nan nan nan nan nan nan nan nan nan nan nan nan nan nan nan nan nan nan nan nan nan nan nan nan nan nan nan nan nan nan nan nan nan nan nan nan nan nan nan nan nan nan nan nan nan nan nan nan nan nan nan nan
CAPE
1568 1561 1597 1686 1682 1682 1625 1617 1705 1705 1811 1836 1791 1791 1561 1423 1423 1276 1174 998 998 828 634 489 454 454 458 467 535 535 604 718 727 727 702 637 637 500 304 187 187 138 93 17 7 7 1 nan nan nan nan nan nan nan nan nan nan nan nan nan nan nan nan 99 59 59 30 27 56 56 156 183 161 161 108 65 65 40 36 34 34 32 51 84 63 63 26 12 8 8 9 17 23 23 20 16 16 13 16 12 12 8 3
1645 1687 1720 1707 1651 1651 1595 1642 1730 1730 1886 1858 1803 1803 1592 1449 1449 1350 1150 977 977 810 618 476 473 473 478 517 589 589 665 684 699 699 659 630 630 559 400 263 263 165 106 19 8 8 nan nan nan nan nan nan nan nan nan nan nan nan nan nan nan nan nan 37 55 55 32 26 36 36 121 197 228 228 210 101 101 43 31 28 28 29 67 141 132 132 49 26 24 24 28 36 34 34 34 28 28 26 26 22 22 18 12
1672 1765 1746 1683 1575 1575 1565 1608 1761 1761 1909 1857 1776 1776 1622 1476 1476 1328 1127 913 913 717 570 464 461 461 467 537 607 607 656 579 521 521 536 575 575 551 477 322 322 199 100 20 7 7 nan nan nan nan nan nan nan nan nan nan nan nan nan nan nan nan nan 26 50 50 35 25 28 28 74 157 269 269 279 127 127 40 23 18 18 25 86 176 183 183 94 36 34 34 39 40 35 35 42 32 32 28 30 26 26 24 17
1805 1844 1726 1613 1501 1501 1489 1627 1778 1778 1945 1778 1700 1700 1604 1455 1455 1304 1015 813 813 665 492 451 449 449 455 558 627 627 644 495 445 445 457 495 495 536 562 363 363 194 94 16 5 5 nan nan nan nan nan nan nan nan nan nan nan nan nan nan nan nan nan 24 30 30 43 31 30 30 56 100 250 250 229 115 115 38 16 8 8 16 30 86 125 125 59 45 41 41 36 32 29 29 27 25 25 22 19 19 19 19 21
1834 1820 1706 1593 1529 1529 1470 1568 1713 1713 1808 1710 1611 1611 1591 1483 1483 1277 950 718 718 549 450 440 437 437 474 543 614 614 628 464 383 383 383 447 447 549 513 355 355 188 70 11 0 0 nan nan nan nan nan nan nan nan nan nan nan nan nan nan nan nan 7 16 27 27 41 37 31 31 36 58 140 140 145 58 58 32 10 5 5 9 19 28 29 29 34 37 35 35 32 27 25 25 19 15 15 10 5 6 6 9 16
1914 1797 1684 1624 1565 1565 1505 1555 1546 1546 1591 1587 1596 1596 1579 1406 1406 1155 889 629 629 503 411 377 425 425 433 530 567 567 541 396 362 362 392 455 455 494 466 321 321 182 47 6 nan nan nan nan nan nan nan nan nan nan nan nan nan nan nan nan nan nan 16 14 28 28 52 42 29 29 27 37 77 77 65 36 36 27 12 7 7 8 12 15 20 20 23 28 27 27 25 20 17 17 11 8 8 3 0 0 0 0 7
1845 1826 1712 1702 1594 1594 1536 1400 1269 1269 1331 1565 1639 1639 1555 1330 1330 1133 830 611 611 432 376 369 389 389 424 488 523 523 464 380 299 299 347 406 406 475 450 313 313 177 26 3 nan nan nan nan nan nan nan nan nan nan nan nan nan nan nan nan nan 10 27 27 34 34 75 81 30 30 19 30 41 41 36 34 34 29 18 19 19 18 18 17 14 14 18 22 22 22 18 14 9 9 7 4 4 2 1 0 0 0 1
1828 1804 1740 1680 1622 1622 1564 1342 1252 1252 1293 1561 1619 1619 1467 1264 1264 1072 813 595 595 449 368 360 381 381 415 449 481 481 453 343 269 269 289 337 337 397 405 306 306 151 21 3 nan nan nan nan nan nan nan nan nan nan nan nan nan nan nan nan nan 18 40 48 66 66 128 122 33 33 16 21 27 27 28 25 25 19 19 21 21 25 27 24 25 25 26 28 26 26 19 15 7 7 4 3 3 2 5 6 6 5 4
1765 1730 1721 1661 1603 1603 1497 1392 1230 1230 1339 1552 1551 1551 1391 1196 1196 966 755 582 582 437 359 352 372 372 380 437 472 472 440 312 222 222 218 258 258 306 339 275 275 126 23 4 nan nan nan nan nan nan nan nan nan nan nan nan nan nan nan nan nan 0 34 57 163 163 207 191 49 49 17 10 11 11 16 16 16 17 23 23 23 24 25 27 24 24 29 31 29 29 25 22 14 14 8 8 8 8 16 14 14 10 7
1660 1670 1704 1696 1587 1587 1481 1375 1319 1319 1286 1434 1426 1426 1271 1079 1079 859 701 536 536 453 372 321 341 341 372 426 457 457 430 283 197 197 133 146 146 187 260 245 245 121 28 4 nan nan nan nan nan nan nan nan nan nan nan nan nan nan nan nan nan 7 19 29 104 104 298 247 69 69 25 15 12 12 14 16 16 19 27 25 25 21 22 21 18 18 21 24 25 25 26 19 14 14 9 13 13 16 17 18 18 15 12
1589 1601 1690 1629 1472 1472 1221 1257 1347 1347 1349 1362 1261 1261 1107 925 925 755 612 488 488 410 361 312 311 311 363 415 444 444 420 275 152 152 72 82 82 101 147 152 152 94 20 6 0 0 nan nan nan nan nan nan nan nan nan nan nan nan nan nan nan 23 16 23 55 55 517 367 134 134 47 36 29 29 29 30 30 37 38 30 30 27 26 25 22 22 16 17 18 18 16 11 9 9 10 12 12 11 13 16 16 17 16
1569 1594 1681 1565 1261 1261 936 1161 1380 1380 1453 1244 1102 1102 955 820 820 655 557 440 440 371 327 325 324 324 376 429 458 458 385 245 107 107 49 43 43 44 49 68 68 54 18 6 nan nan nan nan nan nan nan nan nan nan nan nan nan nan nan 11 11 23 6 10 50 50 662 556 244 244 109 76 56 56 68 72 72 113 105 49 49 43 42 36 32 32 28 20 16 16 10 8 10 10 14 16 16 12 9 11 11 16 16
1510 1588 1579 1415 902 902 647 940 1219 1219 1358 1138 991 991 852 718 718 600 471 424 424 358 338 316 338 338 390 443 446 446 348 195 100 100 43 16 16 9 14 18 18 16 13 3 nan nan nan nan nan nan nan nan nan nan nan nan nan nan nan 39 39 23 8 15 129 129 775 808 410 410 210 152 136 136 142 169 169 122 68 46 46 40 36 38 33 33 31 28 22 22 12 10 14 14 21 26 26 18 8 5 5 7 15
1349 1479 1047 1041 801 801 544 857 1177 1177 1295 1130 976 976 794 661 661 550 457 385 385 346 328 351 376 376 432 462 408 408 291 166 74 74 37 13 13 nan 2 4 4 6 4 0 nan nan nan nan nan nan nan nan nan nan nan nan nan nan nan 43 43 32 17 19 104 104 671 745 460 460 247 145 172 172 133 105 105 60 38 31 31 30 29 32 33 33 30 28 17 17 10 14 23 23 24 27 27 24 14 7 7 9 15
1007 872 548 634 684 684 538 813 1130 1130 1285 1124 924 924 821 724 724 570 476 374 374 357 362 365 417 417 481 482 375 375 256 139 86 86 47 4 4 nan nan nan nan nan 0 nan nan nan nan nan nan nan nan nan nan nan nan nan nan nan nan 48 48 37 18 16 51 51 395 545 447 447 234 119 120 120 74 56 56 47 34 25 25 19 20 24 27 27 24 18 10 10 7 12 23 23 26 27 27 27 20 12 12 12 16
432 271 242 561 650 650 585 931 1187 1187 1226 1070 872 872 850 789 789 660 496 413 413 368 374 379 435 435 503 476 364 364 205 188 98 98 44 0 0 nan nan nan nan nan nan nan nan nan nan nan nan nan nan nan nan nan nan nan nan nan 1 28 28 34 23 18 26 26 89 210 253 253 180 98 65 65 53 49 49 38 29 19 19 13 13 17 18 18 16 12 7 7 5 8 16 16 21 21 21 17 13 15 15 16 18
31 nan 62 466 541 541 677 941 1176 1176 1217 1018 818 818 880 816 816 722 546 432 432 407 387 418 455 455 496 391 287 287 12 46 112 112 42 nan nan nan nan nan nan nan nan nan nan nan nan nan nan nan nan nan nan nan nan nan nan nan 5 25 25 19 21 26 28 28 35 60 75 75 77 50 45 45 41 43 43 33 25 15 15 11 11 12 15 15 16 14 9 9 5 5 9 9 12 9 9 8 5 9 9 13 16
nan nan 423 388 420 420 611 844 1078 1078 1122 962 847 847 869 848 848 713 569 507 507 425 403 437 504 504 459 291 5 5 nan nan nan nan nan nan nan nan nan nan nan nan nan nan nan nan nan nan nan nan nan nan nan nan nan nan nan nan 15 38 38 20 13 25 36 36 33 16 20 20 32 31 36 36 36 33 33 29 22 17 17 13 12 12 14 14 17 18 15 15 7 6 8 8 9 7 7 3 2 3 3 6 10
nan 263 396 337 391 391 446 588 803 803 1029 947 924 924 904 841 841 669 595 529 529 472 449 458 497 497 398 131 nan nan nan nan nan nan nan nan nan nan nan nan nan nan nan nan nan nan nan nan nan nan nan nan nan nan nan nan nan 0 14 75 75 37 15 23 22 22 53 27 24 24 20 23 27 27 26 27 27 25 21 18 18 15 15 17 20 20 22 23 20 20 13 10 11 11 11 10 10 6 3 1 1 1 5
31 510 526 521 528 528 341 238 385 385 692 976 831 831 946 837 837 623 517 545 545 544 519 528 245 245 158 nan nan nan nan nan nan nan 0 0 0 0 0 nan nan nan nan nan nan nan nan nan nan nan nan nan nan nan nan nan nan 5 31 196 196 178 105 59 35 35 37 47 59 59 74 86 53 53 25 22 22 21 22 23 23 24 23 23 20 20 20 18 13 13 8 7 9 9 12 11 11 14 15 8 8 2 0
662 878 548 670 567 567 344 157 269 269 641 921 502 502 587 351 351 553 430 425 425 536 540 276 20 20 nan nan nan nan nan 0 0 0 0 0 0 0 nan nan nan nan nan nan nan nan nan nan nan nan nan nan nan nan nan nan nan 5 40 254 254 284 186 97 60 60 38 39 52 52 80 112 125 125 44 25 25 24 26 28 28 26 28 26 26 26 23 24 19 19 16 12 10 10 10 12 12 16 19 16 16 6 0
878 951 896 803 675 675 430 160 278 278 681 916 668 668 554 370 370 276 219 234 234 287 267 213 17 17 36 nan nan nan nan nan 0 0 0 0 0 0 0 nan nan nan nan nan nan nan nan nan nan nan nan nan nan nan nan nan nan 2 27 339 339 377 277 157 93 93 69 43 48 48 77 96 133 133 110 44 44 25 30 29 29 27 29 30 29 29 29 29 30 30 28 20 18 18 14 17 17 23 23 18 18 12 3
784 813 889 786 735 735 591 266 361 361 519 328 782 782 658 567 567 379 306 265 265 191 139 244 157 157 112 29 10 10 1 0 0 0 0 0 0 0 0 nan nan nan nan nan nan nan nan nan nan nan nan nan nan nan nan nan nan 2 20 330 330 453 375 243 169 169 102 52 56 56 72 91 111 111 128 87 87 33 47 48 48 32 35 37 31 31 31 32 36 36 37 29 26 26 18 19 19 25 27 23 23 16 6
577 810 798 777 695 695 592 376 384 384 344 294 485 485 691 675 675 549 502 384 384 294 237 297 202 202 135 74 16 16 3 1 1 1 0 0 0 0 0 nan nan nan nan nan nan nan nan nan nan nan nan nan nan nan nan nan nan 1 15 272 272 502 479 336 256 256 158 84 88 88 89 89 124 124 123 102 102 86 93 77 77 63 53 44 48 48 43 46 63 63 58 38 28 28 23 23 23 24 29 23 23 16 9
397 624 615 668 692 692 485 385 406 406 240 285 311 311 468 751 751 581 529 457 457 379 292 250 252 252 197 99 30 30 3 1 1 1 0 0 0 0 0 nan nan nan nan nan nan nan nan nan nan nan nan nan nan nan nan nan nan nan 11 176 176 553 559 381 384 384 269 154 103 103 107 125 163 163 163 163 163 145 150 133 133 119 108 93 91 91 94 97 88 88 76 63 51 51 31 27 27 24 30 23 23 17 12
310 464 402 535 687 687 550 357 425 425 249 190 184 184 147 591 591 545 529 454 454 372 374 244 286 286 210 94 37 37 7 1 1 1 0 0 0 0 0 nan nan nan nan nan nan nan nan nan nan nan nan nan nan nan nan nan nan nan 5 101 101 535 679 485 458 458 399 285 214 214 200 222 245 245 248 250 250 232 236 222 222 185 170 175 193 193 169 175 159 159 142 104 104 104 76 47 47 30 31 26 26 22 21
226 377 293 383 582 582 653 422 417 417 339 176 104 104 45 330 330 570 528 453 453 389 419 257 258 258 184 59 5 5 5 1 0 0 nan nan nan nan 0 0 0 0 nan nan nan nan nan nan nan nan nan nan nan nan nan nan nan nan 0 33 33 426 740 673 506 506 476 386 305 305 284 334 361 361 364 342 342 348 325 337 337 296 255 261 285 285 263 268 270 270 226 179 178 178 140 101 101 47 37 31 31 30 29
113 295 288 298 455 455 603 514 456 456 407 204 143 143 60 163 163 563 554 453 453 384 359 269 209 209 141 50 0 0 2 0 0 0 nan nan nan nan nan nan nan nan nan nan nan nan nan nan nan nan nan nan nan nan nan nan nan nan nan 7 7 285 727 856 525 525 500 439 408 408 381 382 439 439 475 450 450 429 431 435 435 412 398 384 394 394 345 344 347 347 340 261 263 263 218 169 169 122 73 48 48 53 81
24 154 169 120 112 112 238 530 521 521 459 238 172 172 78 111 111 524 520 423 423 382 351 237 144 144 116 42 0 0 1 0 nan nan nan nan nan nan nan nan nan nan nan nan nan nan nan nan nan nan nan nan nan nan nan nan nan nan nan 1 1 156 636 1054 895 895 593 463 403 403 375 378 406 406 499 506 506 514 435 528 528 522 529 523 481 481 425 452 450 450 444 350 326 326 272 249 249 198 171 124 124 104 145
1 19 10 nan nan nan 2 233 553 553 369 286 191 191 70 85 85 443 524 423 423 356 323 231 102 102 60 4 nan nan nan nan nan nan nan nan nan nan nan nan nan nan nan nan nan nan nan nan nan nan nan nan nan nan nan nan nan nan nan nan nan 40 429 960 1060 1060 552 430 399 399 371 346 347 347 407 533 533 569 458 592 592 699 660 634 619 619 565 528 521 521 516 444 361 361 332 306 306 279 252 197 197 196 249
nan nan nan nan nan nan nan 17 466 466 330 345 261 261 86 60 60 303 565 428 428 360 301 233 96 96 24 nan nan nan nan nan nan nan nan nan nan nan nan nan nan nan nan nan nan nan nan nan nan nan nan nan nan nan nan nan nan nan nan nan nan 5 168 596 923 923 506 423 398 398 340 290 293 293 298 381 381 504 483 611 611 830 847 760 694 694 635 604 599 599 612 541 475 475 447 368 368 314 260 279 279 306 339
0 0 nan nan nan nan nan nan 178 178 456 458 359 359 272 54 54 233 561 490 490 419 327 252 144 144 29 nan nan nan nan nan nan nan nan nan nan nan nan nan nan nan nan nan nan nan nan nan nan nan nan nan nan nan nan nan nan nan nan nan nan nan 23 253 528 528 560 439 364 364 343 291 265 265 265 322 322 444 542 619 619 873 1031 869 854 854 768 689 680 680 676 646 617 617 548 523 523 465 407 373 373 435 447
0 nan nan nan nan nan nan nan 13 13 18 101 225 225 348 110 110 207 624 495 495 421 351 225 137 137 11 nan nan nan nan nan nan nan nan nan nan nan nan nan nan 0 0 nan nan nan nan nan nan nan nan nan nan nan nan nan nan nan nan nan nan nan nan 46 230 230 397 491 490 490 435 359 313 313 290 319 319 380 477 522 522 750 899 855 881 881 903 812 845 845 807 774 748 748 712 645 645 650 517 518 518 549 556
3 nan nan 0 nan nan nan nan 1 1 0 nan nan nan 22 162 162 356 656 410 410 316 324 316 169 169 17 nan nan nan 8 nan nan nan nan nan nan nan nan 1 1 0 nan nan nan nan nan nan nan nan nan nan nan nan nan nan nan nan nan nan nan nan nan 0 28 28 82 296 546 546 688 481 377 377 363 349 349 386 452 410 410 526 637 697 822 822 933 972 1009 1009 966 888 933 933 814 781 781 638 439 571 571 681 647
1 nan nan nan 0 0 nan 0 2 2 1 nan nan nan nan 140 140 221 507 319 319 133 52 283 331 331 29 nan 4 4 69 6 26 26 6 2 2 1 37 115 115 5 nan 5 nan nan nan nan nan nan nan nan nan nan nan nan nan nan nan nan nan nan nan nan nan nan nan 15 288 288 541 472 453 453 434 447 447 466 470 476 476 506 525 608 735 735 800 955 962 962 920 845 848 848 881 803 803 591 458 592 592 707 714
nan 0 0 nan nan nan 0 0 1 1 0 nan nan nan nan 7 7 62 209 259 259 74 6 29 272 272 79 20 57 57 115 189 146 146 108 35 35 18 167 129 129 37 40 25 34 34 nan 1 nan nan nan nan nan nan nan nan nan nan nan nan nan nan nan nan nan nan nan nan 20 20 380 418 398 398 410 477 477 549 576 541 541 537 528 552 613 613 680 785 816 816 818 790 834 834 910 740 740 493 498 580 580 654 701
0 1 nan 0 1 1 0 0 0 0 nan nan nan nan nan nan nan nan 48 134 134 64 8 10 65 65 89 80 189 189 262 264 235 235 169 77 77 49 57 113 113 64 78 103 207 207 35 10 1 1 nan nan nan nan nan nan nan nan nan nan nan nan nan nan nan nan nan nan nan nan 112 228 211 211 243 384 384 567 630 617 617 612 539 533 500 500 533 566 633 633 696 689 859 859 932 727 727 519 515 599 599 610 613
0 1 1 0 0 0 0 0 nan nan nan nan 0 0 nan nan nan nan nan 53 53 7 14 15 21 21 44 72 190 190 310 245 236 236 88 64 64 82 49 41 41 34 43 80 237 237 101 27 0 0 nan nan nan nan nan nan nan nan nan nan nan nan nan nan nan nan nan nan nan nan 1 28 47 47 83 231 231 420 608 671 671 633 628 627 522 522 455 327 355 355 414 502 640 640 876 955 955 799 730 739 739 713 603
0 nan 0 0 0 0 1 0 nan nan nan 0 nan nan nan nan nan nan nan 55 55 23 14 15 7 7 14 29 60 60 114 158 137 137 10 9 9 44 34 19 19 15 20 30 113 113 161 48 8 8 4 nan nan nan nan 2 2 16 nan nan nan nan nan nan nan nan nan nan nan nan nan nan 1 1 37 151 151 319 428 517 517 545 542 540 506 506 470 375 344 344 340 335 364 364 527 675 675 796 880 890 890 901 791
0 0 0 1 3 3 2 nan nan nan nan 0 0 0 nan nan nan nan nan 52 52 33 18 14 4 4 5 10 7 7 15 23 59 59 1 3 3 11 80 43 43 16 8 26 76 76 165 83 41 41 28 6 5 5 nan nan nan 7 nan nan nan nan nan nan nan nan nan nan nan nan nan nan nan nan 19 99 99 193 306 352 352 375 431 458 456 456 455 426 425 425 360 270 214 214 216 367 367 531 720 767 767 858 867
0 1 1 3 3 3 1 nan nan nan nan nan 1 1 nan nan nan nan nan 26 26 41 15 11 7 7 1 2 2 2 1 nan 9 9 5 2 2 34 69 68 68 33 23 27 91 91 84 61 63 63 41 10 1 1 nan nan nan 0 nan nan nan nan nan nan nan nan nan nan nan nan nan nan nan nan 3 22 22 42 116 240 240 280 359 417 447 447 414 415 388 388 356 326 244 244 190 165 165 220 312 347 347 388 564
1 1 1 1 1 1 1 0 nan nan nan nan 1 1 nan nan nan nan nan 0 0 13 9 1 nan nan 0 nan nan nan nan nan nan nan 7 6 6 4 1 32 32 44 55 54 58 58 39 18 26 26 20 2 nan nan nan nan nan nan nan nan nan nan nan nan nan nan nan 0 nan nan nan 0 0 0 1 2 2 2 1 0 0 23 206 376 442 442 475 411 381 381 356 296 271 271 168 120 120 142 146 151 151 211 392
1 2 2 1 0 0 0 nan nan nan nan nan 0 0 1 1 1 nan nan nan nan nan nan nan nan nan nan nan nan nan nan nan nan nan 0 nan nan nan nan nan nan nan nan nan nan nan 9 3 0 0 2 3 nan nan nan nan nan 0 4 1 1 0 nan nan 0 0 0 1 1 1 0 nan 2 2 1 1 1 2 2 1 1 0 0 0 52 52 266 516 696 696 693 617 477 477 413 354 354 301 275 309 309 312 506
0 1 1 2 1 1 0 nan nan nan nan nan nan nan 0 nan nan nan nan nan nan nan nan nan nan nan nan nan nan nan nan nan nan nan nan nan nan 0 nan 0 0 nan nan 1 1 1 0 nan 4 4 38 29 4 4 nan 0 0 3 2 1 1 nan nan nan nan nan 2 1 1 1 0 0 0 0 0 1 1 2 2 1 1 1 0 1 2 2 9 165 514 514 767 804 723 723 651 694 694 701 592 636 636 530 573
nan 0 1 1 0 0 nan nan nan nan nan nan nan nan nan nan nan nan 0 nan nan nan nan nan nan nan nan nan nan nan nan nan nan nan nan nan nan nan 0 1 1 1 1 2 1 1 1 1 nan nan 31 40 15 15 0 1 1 5 2 nan nan nan nan nan nan nan 1 1 0 0 0 nan nan nan nan nan nan 0 2 1 1 1 1 1 2 2 3 4 140 140 611 767 686 686 723 809 809 812 823 749 749 649 537
nan nan 0 0 0 0 nan nan nan nan nan nan nan nan nan nan nan nan nan 2 2 0 nan nan nan nan nan nan 1 1 1 nan nan nan nan nan nan nan nan 1 1 2 1 1 1 1 1 1 2 2 1 12 6 6 1 5 5 4 0 nan nan nan nan nan nan nan nan 0 1 1 0 nan nan nan nan nan nan nan 0 1 1 1 2 3 3 3 3 3 12 12 347 653 575 575 648 691 691 774 785 684 684 566 368
nan nan 0 nan nan nan nan nan nan nan nan nan nan nan nan nan nan nan nan 5 5 37 1 nan nan nan nan nan nan nan 3 0 nan nan nan nan nan nan 0 0 0 2 0 1 1 1 1 1 1 1 1 1 1 1 1 8 8 2 nan nan nan nan nan nan nan nan nan nan nan nan 0 nan nan nan 0 nan nan nan nan 0 0 1 1 1 2 2 3 2 1 1 86 441 539 539 576 579 579 662 668 531 531 336 174
0 0 0 nan nan nan nan nan nan nan nan nan nan nan nan nan nan nan nan nan nan 7 36 13 1 1 nan nan nan nan nan 2 nan nan nan nan nan nan nan nan nan 1 nan 0 1 1 0 nan nan nan 0 0 0 0 4 3 3 0 nan nan nan nan nan nan nan nan nan nan nan nan nan nan nan nan 0 nan nan nan nan nan nan 0 1 0 1 1 2 1 1 1 10 269 382 382 476 511 511 588 496 369 369 222 95
0 0 nan nan nan nan nan nan nan nan nan nan nan nan nan nan nan nan nan nan nan nan nan 26 27 27 1 nan nan nan nan nan nan nan nan 0 0 0 nan nan nan 1 nan nan 0 0 nan nan nan nan nan nan 0 0 2 1 1 nan nan nan nan nan nan nan nan nan nan nan nan nan nan nan nan nan nan nan nan nan nan nan nan nan nan 0 0 0 1 1 1 1 0 49 184 184 359 457 457 501 423 319 319 189 95
0 nan nan nan nan nan nan nan nan nan nan nan nan nan nan nan nan nan nan nan nan nan nan nan nan nan 0 nan nan nan nan nan nan nan nan nan nan 1 nan 0 0 1 0 nan nan nan nan nan nan nan nan nan 0 0 1 1 1 0 0 nan nan nan nan nan nan nan nan nan nan nan nan nan nan nan nan nan nan nan nan nan nan nan nan nan nan nan nan 2 2 2 0 6 50 50 163 296 296 421 417 320 320 193 123
nan 0 nan nan nan nan nan nan nan nan nan nan nan nan nan nan nan nan nan nan nan nan nan 0 nan nan nan nan 0 0 0 0 nan nan nan nan nan nan nan nan nan 0 2 0 nan nan nan nan nan nan nan nan nan nan 1 3 3 1 0 0 0 0 0 0 nan nan nan nan nan nan nan nan nan nan nan nan nan nan nan nan nan nan nan nan nan nan nan nan 3 3 2 2 5 5 53 128 128 325 362 322 322 223 144
nan 0 nan nan nan nan nan nan nan nan nan nan nan nan nan nan nan nan nan nan nan nan nan nan nan nan nan nan nan nan nan 1 nan nan nan nan nan nan nan nan nan nan nan nan nan nan nan nan nan nan nan nan nan nan nan 2 2 2 2 1 1 0 0 0 0 0 nan nan nan nan nan nan nan nan nan nan nan nan nan nan nan nan nan nan nan nan nan nan nan nan 0 2 7 7 12 50 50 110 183 242 242 193 154
nan nan nan nan nan nan nan nan nan nan nan nan nan nan nan nan nan nan nan nan nan nan nan nan nan nan nan nan nan nan nan 0 0 0 nan nan nan nan nan nan nan nan nan nan nan nan nan nan nan nan nan nan nan nan nan nan nan 1 2 1 1 1 1 1 0 0 nan nan nan nan nan nan nan nan nan nan nan nan nan nan nan nan nan nan nan nan nan nan nan nan nan nan 8 8 13 21 21 62 95 110 110 129 130
nan nan nan nan nan nan nan nan nan nan nan nan nan nan nan nan nan nan nan nan nan nan nan nan nan nan nan nan nan nan nan 0 nan nan nan nan nan nan nan nan nan nan nan nan nan nan nan nan nan nan nan nan nan nan nan nan nan nan 0 2 2 2 1 1 0 0 0 nan nan nan nan nan nan nan nan nan nan nan nan nan nan nan nan nan nan nan nan nan nan nan nan nan nan nan 3 19 19 25 40 58 58 75 87
0 nan nan nan nan nan nan nan nan nan nan nan nan nan nan nan nan nan nan nan nan nan nan nan nan nan nan nan nan nan nan nan nan nan nan nan nan nan nan nan nan nan nan nan nan nan nan nan nan nan 0 nan nan nan nan nan nan nan nan nan nan 1 2 1 0 0 0 nan nan nan nan nan nan nan nan nan nan nan nan nan nan nan nan nan nan nan nan nan nan nan nan nan nan nan nan 18 18 16 22 26 26 37 48
0 0 nan nan nan nan nan nan nan nan nan nan nan nan nan nan nan nan nan nan nan nan nan nan nan nan nan nan nan nan nan nan nan nan nan nan nan nan nan nan nan nan nan nan nan nan nan nan nan nan nan nan nan nan nan nan nan nan nan nan nan nan 1 2 1 1 0 0 nan nan nan nan nan nan nan nan nan nan nan nan nan nan nan nan nan nan nan nan nan nan nan nan nan nan nan 10 10 14 16 20 20 25 33
0 0 nan nan nan nan nan nan nan nan nan nan nan nan nan nan nan nan nan nan nan nan nan nan 0 0 nan nan nan nan nan nan nan nan nan nan nan nan nan nan nan nan nan nan nan nan nan nan nan nan nan 0 nan nan nan nan nan nan nan nan nan nan nan 0 1 1 0 0 nan nan nan nan nan nan nan nan nan nan nan nan nan nan nan nan nan nan nan nan nan nan nan nan nan nan nan 5 5 14 17 18 18 20 25
nan 0 nan nan nan nan nan nan nan nan nan nan nan nan nan nan nan nan nan nan nan nan nan nan nan nan 0 nan nan nan nan nan nan nan nan nan nan nan nan nan nan nan nan nan nan nan nan nan nan nan 1 1 nan nan nan nan nan nan nan nan nan nan nan nan nan nan 0 nan nan nan nan nan nan nan nan nan nan nan nan nan nan nan nan nan nan nan nan nan nan nan nan nan nan nan 0 7 7 12 14 14 14 16 21
nan nan nan nan nan nan nan nan nan nan nan nan nan nan nan nan nan nan nan nan nan nan nan nan nan nan 0 nan nan nan nan nan nan nan nan nan nan nan nan nan nan 0 1 nan nan nan nan nan nan nan nan nan 0 0 nan nan nan nan nan nan nan nan nan nan nan nan nan nan nan nan nan nan nan nan nan nan nan nan nan nan nan nan nan nan nan nan nan nan nan nan nan nan nan nan 3 5 5 7 9 8 8 10 14
nan nan nan nan nan nan nan nan nan nan nan nan nan nan nan nan nan nan nan nan nan nan nan nan nan nan nan nan nan nan nan nan 0 0 nan nan nan nan nan nan nan nan 0 0 nan nan nan nan nan nan nan nan 1 1 nan nan nan nan nan nan nan nan nan nan nan nan nan nan nan nan nan nan nan nan nan nan nan nan nan nan nan nan nan nan nan nan nan nan nan nan nan nan nan nan 5 4 4 5 6 7 7 7 10
nan nan nan nan nan nan nan nan nan nan nan 0 nan nan nan nan nan nan nan nan nan nan nan nan nan nan nan nan nan nan nan nan nan nan nan nan nan nan nan nan nan nan nan nan nan nan nan nan nan nan nan nan nan nan 0 nan nan nan nan nan nan nan nan nan nan nan nan nan nan nan nan nan nan nan nan nan nan nan nan nan nan nan nan nan nan nan nan nan nan nan nan nan nan nan 1 5 5 6 6 7 7 6 8